7 * 24
多渠道服务支持
STARLINK-36360(NORAD编号68402)是美国SpaceX公司星链(Starlink)星座的成员卫星,属于Starlink第二代卫星组网的组成部分,主要服务于全球卫星宽带互联网服务。该卫星运行于近地轨道,在SpaceX 2026年整体降轨计划中,其轨道高度将从原550公里调整至480公里,降低轨道后可缩短故障卫星再入大气层时间,减少太空碎片风险。作为星链移动服务的节点卫星,它支持包括语音、数据甚至5G级互联网接入服务,可在无地面覆盖区域提供稳定通信连接,助力星链实现全球无缝互联网覆盖的目标。
美国
(US)
| 数据来源 | 国际轨道数据 |
| 星历时间: | 2026-07-27T06:18:05+0800 1天前 查看轨道信息 |
| 半长轴: | 6843.675km |
| 偏心率: | 0.0000638 |
| 轨道倾角: | 97.285° |
| 近地点辐角 | 93.124° |
| 升交点赤经 | 349.599° |
| 平近点角 | 267.007° |
| 近地点: | 465.101km |
| 远地点: | 465.975km |
| 周期: | 93.906分钟 |
| 每日圈数: | 15.33447 |